Charlottetown, Prince Edward Island

5:49 AM ADT on July 25, 2017 (GMT -0300)
Charlottetown

Weather History for CYYG - February, 2013

Change the Weather History Date:

Friday, February 22, 2013

  Actual Average Record
Temperature  
Mean Temperature 26 °F -  
Max Temperature 29 °F 31 °F 42 °F (2014)
Min Temperature 23 °F 17 °F -5 °F (2001)
Degree Days  
Heating Degree Days 39    
Moisture  
Dew Point 22 °F    
Average Humidity 84    
Maximum Humidity 100    
Minimum Humidity 68    
Precipitation  
Precipitation 0.01 in 0.12 in - ()
Sea Level Pressure  
Sea Level Pressure 30.17 in    
Wind  
Wind Speed 19 mph ()    
Max Wind Speed 29 mph    
Max Gust Speed 43 mph    
Visibility 11.2 miles    
Events Snow    
Averages and records for this station are not official NWS values.
T = Trace of Precipitation, MM = Missing Value Source: Averaged Metar Reports

Daily Weather History Graph

Daily Weather History Graph

Search for Another Location

Airport or City:

Trip Planner

Search our weather history database for the weather conditions in past years. The results will help you decide how hot, cold, wet, or windy it might be!

Date:

Astronomy

Feb. 22, 2013 Rise Set
Actual Time 7:03 AM AST 5:48 PM AST
Civil Twilight 6:33 AM AST 6:19 PM AST
Nautical Twilight 5:58 AM AST 6:54 PM AST
Astronomical Twilight 5:23 AM AST 7:29 PM AST
Moon 2:49 PM AST (2/22) 4:53 AM AST (2/22)
Length of Visible Light 11h 46m
Length of Day
10h 45m
Waxing Gibbous, 90% of the Moon is Illuminated
Feb 22
Waxing Gibbous
Feb 25
Full
Mar 4
Last Quarter
Mar 11
New
Mar 19
First Quarter

Hourly Weather History & Observations

Time (AST) Temp. Windchill Dew Point Humidity Pressure Visibility Wind Dir Wind Speed Gust Speed Precip Events Conditions
12:00 AM 30.2 °F 15.9 °F 28.4 °F 93% 29.86 in 10.0 mi NNE 26.5 mph 42.6 mph N/A Snow Light Snow
1:00 AM 30.2 °F 16.5 °F 28.4 °F 93% 29.90 in 6.0 mi North 24.2 mph 33.4 mph N/A Snow Light Snow
2:00 AM 29 °F - 28 °F 94% 29.93 in 6 mi North 26.5 mph - - Snow Light Snow
2:00 AM 28.4 °F 14.1 °F 28.4 °F 100% 29.93 in 6.0 mi North 24.2 mph 36.8 mph N/A Snow Light Snow
3:00 AM 28.4 °F 15.4 °F 26.6 °F 93% 29.97 in 10.0 mi North 19.6 mph 38.0 mph N/A Snow Light Snow
4:00 AM 26.6 °F 11.4 °F 26.6 °F 100% 30.00 in 12.0 mi North 25.3 mph 36.8 mph N/A Snow Light Snow
4:51 AM 26.6 °F 11.1 °F 24.8 °F 93% 30.02 in 12.0 mi North 26.5 mph 41.4 mph N/A Snow Light Freezing Drizzle
5:00 AM 26.6 °F 10.6 °F 24.8 °F 93% 30.03 in 12.0 mi North 28.8 mph 40.3 mph N/A Snow Light Freezing Drizzle
6:00 AM 26.6 °F 10.6 °F 23.0 °F 86% 30.07 in 12.0 mi North 28.8 mph 38.0 mph N/A Snow Light Freezing Drizzle
6:36 AM 26.6 °F 12.0 °F 23.0 °F 86% 30.09 in 6.0 mi North 23.0 mph 36.8 mph N/A Snow Light Snow
7:00 AM 26.6 °F 11.7 °F 23.0 °F 86% 30.11 in 12.0 mi North 24.2 mph 34.5 mph N/A Snow Light Snow
8:00 AM 26 °F - 22 °F 80% 30.15 in 12 mi North 23.0 mph - - Snow Light Snow Showers
8:00 AM 26.6 °F 11.7 °F 23.0 °F 86% 30.15 in 12.0 mi North 24.2 mph 34.5 mph N/A Snow Light Snow Showers
9:00 AM 26.6 °F 12.4 °F 23.0 °F 86% 30.18 in 12.0 mi North 21.9 mph 31.1 mph N/A Snow Light Snow Showers
10:00 AM 26.6 °F 13.1 °F 23.0 °F 86% 30.20 in 15.0 mi North 19.6 mph 31.1 mph N/A Snow Light Snow Showers
11:00 AM 26.6 °F 13.8 °F 21.2 °F 80% 30.22 in 15.0 mi North 17.3 mph 33.4 mph N/A Snow Light Snow Showers
11:05 AM 26.6 °F 12.7 °F 21.2 °F 80% 30.22 in 12.0 mi North 20.7 mph 33.4 mph N/A Snow Light Freezing Drizzle
12:00 PM 26.6 °F 13.8 °F 23.0 °F 86% 30.23 in 10.0 mi North 17.3 mph 26.5 mph N/A Snow Light Freezing Drizzle
1:00 PM 26.6 °F 14.3 °F 23.0 °F 86% 30.24 in 8.0 mi North 16.1 mph 24.2 mph N/A Snow Light Freezing Drizzle
1:25 PM 26.6 °F 14.3 °F 23.0 °F 86% 30.24 in 8.0 mi North 16.1 mph 25.3 mph N/A Snow Light Snow Showers
2:00 PM 27 °F - 22 °F 73% 30.25 in 7 mi North 15.0 mph - - Snow Light Snow Showers
2:00 PM 26.6 °F 14.7 °F 21.2 °F 80% 30.24 in 8.0 mi North 15.0 mph 25.3 mph N/A Snow Light Snow Showers
3:00 PM 26.6 °F 14.7 °F 19.4 °F 74% 30.25 in 10.0 mi North 15.0 mph 24.2 mph N/A Snow Light Snow Showers
4:00 PM 24.8 °F 12.4 °F 19.4 °F 80% 30.27 in 10.0 mi North 15.0 mph 25.3 mph N/A Snow Light Snow Showers
5:00 PM 24.8 °F 12.9 °F 19.4 °F 80% 30.30 in 12.0 mi North 13.8 mph 25.3 mph N/A Snow Light Snow Showers
6:00 PM 24.8 °F 12.9 °F 17.6 °F 74% 30.31 in 15.0 mi North 13.8 mph 21.9 mph N/A   Overcast
7:00 PM 24.8 °F 13.4 °F 17.6 °F 74% 30.32 in 15.0 mi North 12.7 mph 21.9 mph N/A   Overcast
8:00 PM 24 °F - 18 °F 68% 30.34 in 15 mi North 10.4 mph - -   Partly Cloudy
8:00 PM 23.0 °F 11.7 °F 17.6 °F 80% 30.34 in 15.0 mi North 11.5 mph - N/A   Overcast
9:00 PM 23.0 °F 11.7 °F 17.6 °F 80% 30.35 in 15.0 mi North 11.5 mph 20.7 mph N/A Snow Light Snow Showers
10:00 PM 23.0 °F 11.1 °F 15.8 °F 74% 30.34 in 15.0 mi North 12.7 mph - N/A Snow Light Snow Showers
11:00 PM 23.0 °F 11.1 °F 15.8 °F 74% 30.32 in 15.0 mi North 12.7 mph - N/A Snow Light Snow Showers